User: anonymous   Login
Location: Unspecified
(0.0000°N, 0.0000°E)
Time: 00:10:37
(UTC+00:00)
Language:

GALEX - Orbit

View from above orbital plane
View from above orbital plane
View from above satellite
View from above satellite

Ground track
Ground track

The orbit data is extracted from the following two-line orbital elements,

1 27783U 03017A   18112.12439340  .00000230  00000-0  24061-4 0  9999
2 27783  28.9990 359.1154 0003719 208.8397 151.1985 14.62091354800677
Epoch (UTC): 22 April 2018 02:59:07
Eccentricity: 0.0003719
inclination: 28.9990°
perigee height: 684 km
apogee height: 689 km
right ascension of ascending node: 359.1154°
argument of perigee: 208.8397°
revolutions per day: 14.62091354
mean anomaly at epoch: 151.1985°
orbit number at epoch: 80067

The dashed part of the orbit path shows where the satellite is in the earth's shadow,  

DLR